Find Starlink 11246

NORAD ID: 60932 Int'l Des: 2024-155 Owner: SPXS Country: US Constellation: starlink operational
LEOCIRCULAR

Current View

Loading 3D Globe...

About Starlink 11246

Starlink 11246 (NORAD 60932) is a starlink constellation satellite (v2 mini d2c) launched Aug 31, 2024 by SPXS of US. It operates in LEO, CIRCULAR orbit with a mass of 960.00 kg.

About Starlink 11246

Description loading...

Upcoming Passes

Passes for default location (London). Set your location on the main map for personalized predictions.

Altitude History

Loading altitude history...

Two-Line Element Set

1 60932U 24155J 26171.44212020 -.00001753 00000-0 -96240-5 0 9993
2 60932 53.1604 194.5107 0001108 86.1807 273.9338 15.69696125104547
Epoch: Jun 20, 2026 • Age: 47 hours

Current Status

Altitude 375.4 km
Velocity 7.68 km/s
Sub-Earth Point -44.52°S, 0.71°W
Launch Date Aug 31, 2024
Age 1.8 years
Type internet

Technical Details

Classification Payload
Mass 960.00 kg
Dry Mass 910.00 kg
Total Mass 960.00 kg
Length 0.30 m
Diameter 4.10 m
Span 29.00 m
Shape Box + pan
Manufacturer SPXS
Bus Type Starlink V2MD
Phase Status In Orbit
Owner/State SPXS/US

Most Searched